This demonstration page uses our WeatherBlox Daily Observations layout. Learn more.

Left ArrowRight Arrow

44.89941, -97.11507

Hourly Observations for June 27, 2022

Temp ( °F °C ) Dew Point ( °F °C ) Humidity (%) Winds ( mph kmh ) Pressure ( in mb ) Visibility ( mi km ) Precip ( " mm )
12:53 am 00:53 Clear 57 13.9 45 7.2 64 64 WSW 9 15 30.28 1026 10 16 0.00 0.00
1:53 am 01:53 Clear 54 12.2 48 8.9 80 80 WSW 8 13 30.27 1025 10 16 0.00 0.00
2:53 am 02:53 Clear 58 14.4 46 7.8 65 65 WSW 10 17 30.26 1025 10 16 0.00 0.00
3:53 am 03:53 Clear 56 13.3 45 7.2 67 67 WSW 8 13 30.26 1025 10 16 0.00 0.00
4:53 am 04:53 Clear 56 13.3 45 7.2 67 67 SSW 3 6 30.26 1025 10 16 0.00 0.00
5:53 am 05:53 Sunny 53 11.7 47 8.3 80 80 Calm 30.27 1025 10 16 0.00 0.00
6:53 am 06:53 Sunny 57 13.9 49 9.4 74 74 S 3 6 30.27 1025 10 16 0.00 0.00
7:53 am 07:53 Sunny 65 18.3 50 10 59 59 SW 12 19 30.27 1025 10 16 0.00 0.00
8:53 am 08:53 Sunny 69 20.6 50 10 51 51 WSW 14 22 30.28 1025 10 16 0.00 0.00
9:53 am 09:53 Sunny 73 22.8 49 9.4 43 43 W 13 20 30.28 1026 10 16 0.00 0.00
10:53 am 10:53 undefined N/A N/A N/A undefined N/A N/A N/A 0.00 0.00
11:53 am 11:53 undefined 77 25 46 7.8 33 33 WSW 15 24 30.25 1025 N/A 0.00 0.00
12:53 pm 12:53 undefined 79 26.1 47 8.3 32 32 SW 15 24 30.24 1024 10 16 0.00 0.00
1:53 pm 13:53 Sunny 80 26.7 47 8.3 31 31 SW 13 20 30.21 1023 10 16 0.00 0.00
2:53 pm 14:53 Sunny 82 27.8 46 7.8 28 28 WSW 17 28 30.18 1022 10 16 0.00 0.00
3:53 pm 15:53 Sunny 82 27.8 45 7.2 27 27 SW 9 15 30.16 1021 10 16 0.00 0.00
4:53 pm 16:53 Mostly Sunny 83 28.3 46 7.8 27 27 SSW 9 15 30.14 1021 10 16 0.00 0.00
5:53 pm 17:53 Partly Cloudy 82 27.8 47 8.3 29 29 SSW 13 20 30.13 1020 10 16 0.00 0.00
6:53 pm 18:53 Sunny 80 26.7 49 9.4 34 34 S 9 15 30.11 1020 10 16 0.00 0.00
7:53 pm 19:53 Sunny 78 25.6 50 10 37 37 S 9 15 30.08 1019 10 16 0.00 0.00
8:53 pm 20:53 Mostly Sunny 73 22.8 53 11.7 50 50 S 7 11 30.07 1018 10 16 0.00 0.00
9:53 pm 21:53 Mostly Clear 71 21.7 51 10.6 49 49 S 8 13 30.07 1018 10 16 0.00 0.00
10:53 pm 22:53 Clear 69 20.6 52 11.1 55 55 S 8 13 30.04 1017 10 16 0.00 0.00
11:53 pm 23:53 Clear 67 19.4 52 11.1 59 59 SSE 7 11 30.08 1019 10 16 0.00 0.00

Powered by AerisWeather